STARLINK-35736, 66230

Orbit data source: Space-Track

STARLINK-35736, 66230 is a payload satellite owned by SpaceX/Seattle (US) in LEO that was launched on Tue, 28 Oct 2025 UTC via an FALCON 9 launch vehicle from the Air Force Western Test Range (AFWTR). Payload-class satellites include a variety of spacecraft equipped with specific instruments for various scientific and technological missions. These include communications satellites like Starlink; space stations such as the ISS; scientific satellites like the Hubble; Earth observation satellites from companies like Planet Labs, Umbra, and HawkEye 360; GPS; miniature CubeSats for education and research; and military/defense satellites.

Loading next visibility...
Identifier
66230, 2025-244AA
Orbit
LEO
Country
Flag of USUS
Related business
Manufacturer
SpaceX/Seattle
Mission
Operational Commercial Communications
Bus & Motor
STARLINK V2MO, Unknown motor
Mass
575 kg wet, ~530 kg dry
Launch date (UTC)
2025-10-28 (8 months ago)
Launch vehicle
FALCON 9
Launch site
Air Force Western Test Range (AFWTR)
Object type
Payload
Rocket body
Debris
Shape & HBR
Box + 2 Pan, 17.7 m
Radar Cross Section
36.964 m², Large (>1 m²)

Expand to show TLE details & history
Last TLE update: 23 hours ago

TLE from 23 hours ago
0 STARLINK-35736
1 66230U 25244AA  26170.87403518  .00011131  00000-0  38731-3 0  9998
2 66230  53.1584 115.3254 0001656 100.9183 259.2004 15.30205259 37303
Epoch: 2026-06-19T20:58Z
TLE epoch observation values (Epoch: 2026-06-19T20:58:36.639Z)
Latitude
-0.00004°
Longitude
-107.42404°
Altitude
476.312 km
Speed
7.629 km/s
True Right ascension
07h 41m 18s
True Declination
0° 00' 00"
Sunlit
Object was in daylight at epoch
Visualization orbit readout
Latitude
Unknown
Longitude
Unknown
Altitude
Unknown
Speed
Unknown
Apparent Right ascension
Unknown
Apparent Declination
Unknown
Sunlit
N/A
Visualization observer readout
Local Sidereal Time
07:17:39
Azimuth
Unknown
Elevation
Unknown
Doppler factor
Unknown
Orbital elements
Apogee altitude
476.591 km
Perigee altitude
474.321 km
Semi-major axis
6,853.593 km
Eccentricity
0.00017
Inclination
53.1584°
RAAN
115.3254°
Arg. of periapsis
100.9183°
True anomaly
259.18176°
Mean anomaly
259.2004°
Eccentric anomaly
259.19108°
Mean motion
3.8253 °/min
Orbital period
94.11 mins
BSTAR
0.00038731
Loading maneuver chart data...
Computing Atmospheric mass density...
Loading historical data...
Loading historical data...
Loading historical data...
Loading historical data...
Loading historical data...
Loading historical data...
Loading historical data...

Documentation

Showing up to 5 results
|